Flagstaff, AZ

3:37 AM MST on July 21, 2017 (GMT -0700)
Flagstaff Pulliam

Weather History for KFLG - October, 2012

Change the Weather History Date:

Friday, October 5, 2012

  Actual Average Record
Temperature  
Mean Temperature 53 °F 50 °F  
Max Temperature 71 °F 66 °F 80 °F (1975)
Min Temperature 34 °F 35 °F 14 °F (1969)
Degree Days  
Heating Degree Days 12 15  
Month to date heating degree days 39 69  
Since 1 July heating degree days 249 386  
Cooling Degree Days 0 0  
Month to date cooling degree days 0 0  
Year to date cooling degree days 164 117  
Growing Degree Days 2 (Base 50)    
Moisture  
Dew Point 27 °F    
Average Humidity 44    
Maximum Humidity 70    
Minimum Humidity 18    
Precipitation  
Precipitation 0.00 in 0.06 in 1.80 in (1940)
Month to date precipitation 0.00 0.30  
Year to date precipitation 10.76 16.87  
Snow  
Snow 0.00 in 0.00 in 3.60 in (1912)
Month to date snowfall 0.0 0.1  
Since 1 July snowfall 0.0 0.1  
Snow Depth 0.00 in    
Sea Level Pressure  
Sea Level Pressure 30.04 in    
Wind  
Wind Speed 6 mph (SW)    
Max Wind Speed 20 mph    
Max Gust Speed 25 mph    
Visibility 10 miles    
Events      
T = Trace of Precipitation, MM = Missing Value Source: NWS Daily Summary

Daily Weather History Graph

Daily Weather History Graph

Search for Another Location

Airport or City:

Trip Planner

Search our weather history database for the weather conditions in past years. The results will help you decide how hot, cold, wet, or windy it might be!

Date:

Astronomy

Oct. 05, 2012 Rise Set
Actual Time 6:25 AM MST 6:04 PM MST
Civil Twilight 5:59 AM MST 6:29 PM MST
Nautical Twilight 5:30 AM MST 6:58 PM MST
Astronomical Twilight 5:00 AM MST 7:28 PM MST
Moon 9:41 PM MST (10/5) 11:25 AM MST (10/5)
Length of Visible Light 12h 29m
Length of Day
11h 39m
Waning Gibbous, 73% of the Moon is Illuminated
Oct 5
Waning Gibbous
Oct 8
Last Quarter
Oct 15
New
Oct 21
First Quarter
Oct 29
Full

Hourly Weather History & Observations

Time (MST) Temp. Dew Point Humidity Pressure Visibility Wind Dir Wind Speed Gust Speed Precip Events Conditions
12:57 AM 43.0 °F 28.9 °F 58% 30.06 in 10.0 mi Calm Calm - N/A   Clear
1:57 AM 41.0 °F 28.0 °F 60% 30.07 in 10.0 mi Calm Calm - N/A   Clear
2:57 AM 37.9 °F 27.0 °F 65% 30.07 in 10.0 mi Calm Calm - N/A   Clear
3:57 AM 37.0 °F 27.0 °F 67% 30.07 in 10.0 mi Calm Calm - N/A   Clear
4:57 AM 35.1 °F 26.1 °F 70% 30.09 in 10.0 mi Calm Calm - N/A   Clear
6:57 AM 39.0 °F 27.0 °F 62% 30.10 in 10.0 mi Calm Calm - N/A   Clear
7:57 AM 55.9 °F 28.9 °F 36% 30.06 in 10.0 mi West 4.6 mph - N/A   Clear
8:57 AM 61.0 °F 28.0 °F 29% 30.05 in 10.0 mi SSW 8.1 mph - N/A   Clear
9:57 AM 64.9 °F 28.0 °F 25% 30.04 in 10.0 mi WSW 6.9 mph - N/A   Clear
10:57 AM 68.0 °F 28.0 °F 22% 30.06 in 10.0 mi SW 12.7 mph 17.3 mph N/A   Clear
11:57 AM 69.1 °F 28.9 °F 22% 30.05 in 10.0 mi SSW 16.1 mph - N/A   Clear
12:57 PM 68.0 °F 28.0 °F 22% 30.03 in 10.0 mi South 11.5 mph 23.0 mph N/A   Clear
1:57 PM 69.1 °F 27.0 °F 21% 30.03 in 10.0 mi SSW 11.5 mph 23.0 mph N/A   Clear
2:57 PM 70.0 °F 24.1 °F 18% 30.02 in 10.0 mi WSW 10.4 mph 18.4 mph N/A   Clear
3:57 PM 68.0 °F 24.1 °F 19% 30.01 in 10.0 mi SW 13.8 mph 21.9 mph N/A   Clear
4:57 PM 66.9 °F 26.1 °F 21% 30.03 in 10.0 mi SW 10.4 mph 18.4 mph N/A   Clear
5:57 PM 63.0 °F 27.0 °F 26% 30.04 in 10.0 mi SW 9.2 mph - N/A   Clear
6:57 PM 59.0 °F 26.1 °F 28% 30.04 in 10.0 mi WSW 4.6 mph - N/A   Clear
7:57 PM 55.0 °F 26.1 °F 33% 30.01 in 10.0 mi WSW 4.6 mph - N/A   Clear
8:57 PM 52.0 °F 27.0 °F 38% 29.99 in 10.0 mi SW 3.5 mph - N/A   Clear
9:57 PM 50.0 °F 27.0 °F 41% 29.99 in 10.0 mi SW 3.5 mph - N/A   Clear
10:57 PM 46.0 °F 26.1 °F 46% 30.00 in 10.0 mi Calm Calm - N/A   Clear
11:57 PM 45.0 °F 26.1 °F 48% 29.99 in 10.0 mi Calm Calm - N/A   Clear